Total_Precipitation_Accumulation
2.00 1.82 2.29 1.95 1.79 1.16 1.36 1.65 1.49 1.24 1.41 1.23 1.32 0.96 1.11 0.80 0.63 0.59 1.20 0.43 0.55 0.75 0.61 0.87 0.90 0.95 0.64 0.52 0.50 0.48 0.95 0.74 0.68 0.58 0.78 1.01 0.66 0.38 0.40 0.72 0.71 0.54 0.45 0.44 0.42 0.45 0.29 0.33 0.20 0.26 0.18 0.18 0.15 0.13 0.09 0.11 0.19 0.34 0.37 0.56 0.54 0.60 0.81 1.01 0.72 0.39 0.52 0.32 0.31 0.62 0.99 0.71 0.84 0.60 0.60 0.93 1.33 0.57 0.41 0.61 0.71 0.39 0.65 0.45 0.75
2.34 3.19 2.45 2.69 2.41 1.73 1.33 1.61 1.99 1.93 1.77 1.63 1.21 1.04 0.91 0.89 0.78 0.80 0.66 0.94 1.13 0.72 0.44 0.30 0.43 0.49 0.68 0.61 0.62 1.16 1.02 0.82 0.98 0.68 0.79 1.01 0.87 0.52 0.44 0.61 0.56 0.37 0.37 0.33 0.35 0.34 0.28 0.17 0.24 0.17 0.21 0.25 0.18 0.15 0.19 0.19 0.15 0.32 0.21 0.37 0.36 0.54 0.53 0.47 0.31 0.67 0.62 0.46 0.70 0.64 0.63 0.60 0.70 0.58 0.92 0.95 1.45 0.69 0.87 0.79 0.82 1.25 0.89 0.67 0.75
2.95 3.51 2.76 2.43 2.41 2.65 3.52 2.60 2.15 2.31 1.97 1.33 1.01 1.07 1.00 1.15 0.80 0.83 1.09 1.00 0.92 0.54 0.50 0.54 0.27 0.46 0.68 1.39 0.81 0.56 0.77 1.06 0.78 1.11 0.87 0.80 0.64 0.42 0.71 0.70 0.64 0.35 0.37 0.51 0.36 0.60 0.62 0.53 0.26 0.31 0.35 0.38 0.42 0.23 0.31 0.35 0.29 0.20 0.38 0.39 0.36 0.30 0.67 0.65 0.69 0.64 0.48 0.52 0.46 0.66 0.66 0.89 0.98 1.20 1.47 1.24 1.26 1.06 0.89 0.57 0.85 0.91 0.91 0.67 1.18
3.40 2.98 2.99 2.12 2.32 2.05 2.23 2.07 2.34 3.26 2.37 1.82 1.54 1.65 1.27 1.45 1.18 1.15 1.50 1.07 0.55 0.35 0.44 0.61 0.66 1.13 1.23 0.84 0.65 0.82 1.32 1.07 1.27 1.03 0.78 0.95 0.80 0.49 0.87 0.89 0.54 0.50 0.32 0.48 0.72 1.11 1.08 0.68 0.44 0.50 0.61 0.64 0.54 0.43 0.53 0.32 0.46 0.34 0.34 0.28 0.20 0.28 0.49 0.36 1.07 0.63 0.53 0.61 0.88 0.51 0.83 0.82 1.27 1.25 1.43 1.26 1.68 1.52 1.18 0.84 1.13 0.79 0.76 0.67 0.58
2.93 3.13 4.13 4.27 4.09 3.15 3.04 3.15 3.35 2.95 1.84 1.61 1.48 1.90 1.44 1.70 1.41 1.00 0.82 0.90 1.71 1.19 1.13 1.35 1.40 0.94 0.70 0.62 1.01 0.80 0.73 0.97 0.81 1.27 1.21 0.90 0.91 1.26 1.26 0.95 0.63 0.35 0.48 0.48 0.67 1.02 0.95 0.73 0.60 0.81 0.62 0.58 0.41 0.47 0.45 0.41 0.51 0.62 0.46 0.28 0.30 0.33 0.31 0.70 0.69 0.92 0.82 0.71 0.65 0.63 0.59 0.83 1.60 1.76 1.87 1.34 1.34 1.17 1.09 0.74 1.40 0.80 0.64 0.68 1.02
3.67 3.32 2.81 2.72 2.97 3.10 2.61 2.48 2.20 1.88 1.62 1.37 1.38 1.74 1.66 1.93 1.47 1.40 1.14 1.18 1.32 1.26 1.80 1.76 1.61 1.36 1.01 1.19 1.26 1.21 1.26 1.29 1.14 1.54 1.31 1.56 1.35 1.59 1.38 1.66 0.63 0.87 0.60 1.20 1.42 2.03 1.62 0.82 1.12 1.72 0.92 0.76 0.40 0.48 0.59 1.14 1.08 0.81 0.57 0.55 0.60 0.62 0.68 0.62 0.64 0.77 0.61 0.61 0.87 0.72 1.11 0.80 1.69 1.83 1.91 1.32 0.98 0.86 0.69 0.78 0.79 0.62 0.32 0.39 0.80
2.72 2.83 2.23 2.00 2.75 3.62 3.22 2.68 2.81 2.09 1.54 2.08 2.19 2.47 1.81 1.80 1.93 1.87 1.87 1.65 1.49 1.55 1.92 1.67 1.44 1.35 1.29 1.13 1.21 1.09 1.23 1.50 2.06 2.78 2.52 1.89 2.37 1.52 1.52 1.49 1.39 1.13 1.51 1.66 1.45 2.31 2.18 1.81 1.50 1.38 1.20 0.88 0.85 0.99 0.78 1.10 0.94 0.75 0.43 0.55 0.48 0.55 0.60 0.75 0.59 0.80 1.16 0.72 0.77 1.11 1.00 1.50 1.86 2.30 2.58 1.44 1.37 1.15 1.11 0.84 1.07 0.96 0.91 0.45 0.71
3.46 2.35 1.43 1.10 2.10 3.69 2.41 2.76 3.56 2.90 2.75 3.76 2.84 2.26 2.86 2.19 2.44 2.43 2.94 2.69 1.89 1.53 1.42 1.25 1.21 1.32 1.42 1.90 1.70 1.70 2.28 1.86 1.78 2.35 2.27 2.43 2.14 1.91 1.79 1.40 2.43 1.88 1.18 1.34 1.37 1.62 2.31 2.14 2.32 1.74 1.79 1.46 1.12 0.93 1.08 1.10 0.90 0.62 0.45 0.73 0.76 0.67 0.63 0.46 0.80 0.97 1.16 1.01 0.90 1.41 1.39 1.91 2.67 2.52 2.32 1.88 1.47 1.23 0.94 1.38 1.17 1.29 0.89 1.05 0.97
4.34 2.87 2.48 2.23 2.41 3.35 4.01 3.98 3.45 3.71 3.15 3.86 3.70 2.75 3.02 3.89 3.26 3.73 2.63 2.53 2.91 2.12 1.97 1.52 1.36 1.10 0.89 0.98 1.43 1.17 1.72 1.48 1.44 2.08 1.71 1.80 2.68 2.05 1.34 1.84 1.81 1.63 1.80 1.28 1.41 2.60 3.16 2.28 1.88 1.65 1.55 1.75 1.26 1.18 0.80 0.89 1.24 1.15 1.33 1.13 1.35 0.91 0.65 1.24 0.83 0.81 1.16 1.13 1.46 1.46 1.84 1.90 2.10 2.30 2.06 1.84 1.22 1.04 2.40 1.80 1.19 1.04 1.27 1.36 1.61
4.18 3.41 2.76 2.98 2.52 3.50 3.80 3.69 3.94 4.28 3.81 4.36 4.88 3.45 3.28 4.11 4.66 3.76 2.71 2.66 2.46 2.15 1.80 1.58 1.56 1.22 1.55 1.71 1.29 1.57 1.48 1.59 1.15 1.48 1.23 1.70 2.02 1.85 1.78 1.52 1.93 2.09 2.06 1.81 1.85 2.57 2.29 2.25 2.62 1.39 1.89 1.44 1.37 1.10 0.77 0.88 1.04 1.19 1.13 1.11 1.27 2.09 1.21 1.30 1.07 1.09 1.28 1.49 1.48 1.49 1.71 1.94 1.81 3.01 2.07 2.16 1.96 1.89 1.94 2.22 1.55 1.98 1.58 1.59 1.52
4.20 3.14 2.78 4.35 4.60 4.22 4.84 4.16 3.66 4.21 4.04 3.98 4.75 4.20 3.52 3.27 3.34 3.03 2.11 1.78 2.02 2.17 1.88 1.69 1.31 2.22 1.57 1.90 2.12 2.07 1.69 1.49 0.94 1.27 1.17 1.20 2.08 2.43 1.65 1.69 1.92 2.07 1.41 1.27 2.27 2.18 1.69 1.97 1.38 1.20 1.55 1.72 1.61 1.56 1.16 2.22 2.16 1.64 1.53 1.30 1.62 2.33 2.97 1.88 1.38 1.47 1.38 1.85 1.55 1.74 1.32 1.60 1.87 1.78 1.69 1.58 1.39 1.96 2.37 1.77 2.23 2.46 2.12 1.84 1.59
5.39 4.58 4.48 5.17 4.65 3.96 3.51 4.41 3.81 3.29 3.75 5.07 4.64 3.87 3.56 2.92 2.75 2.86 1.99 2.26 1.61 1.43 1.39 1.21 0.99 1.34 1.41 2.12 1.96 1.70 1.61 1.46 1.50 1.59 1.18 1.17 1.01 1.64 1.49 1.24 1.78 2.04 1.57 1.37 1.41 1.63 2.02 1.75 2.10 2.59 2.26 2.93 2.37 1.84 1.44 1.50 1.15 1.03 1.43 1.40 1.78 2.57 2.38 2.49 2.70 2.46 2.28 2.02 2.33 2.12 1.60 1.78 2.05 2.59 2.09 1.54 1.51 1.53 1.79 1.67 2.06 1.79 1.91 3.09 1.93
4.91 5.45 5.57 4.91 5.15 4.06 4.18 4.90 4.07 3.43 4.24 5.16 4.89 4.94 3.43 3.29 3.01 2.85 1.87 1.92 2.00 1.46 1.22 1.48 1.30 1.22 1.35 1.70 1.42 1.03 1.17 2.24 1.48 0.91 0.63 0.68 0.53 0.89 1.48 1.80 1.56 1.40 1.63 1.58 1.68 1.64 2.19 2.09 2.35 2.43 2.61 2.33 2.59 2.18 1.66 1.25 1.50 1.30 1.33 1.44 1.57 1.55 1.81 1.77 1.77 2.50 2.69 2.72 2.14 1.77 1.52 1.97 1.93 2.30 1.86 1.86 2.30 1.41 2.21 2.82 2.73 2.44 2.29 2.08 2.21
6.46 6.49 5.65 5.28 4.39 3.19 3.90 3.70 3.60 3.83 4.40 5.40 5.04 3.31 3.51 2.53 2.80 3.89 2.53 1.98 1.73 1.45 1.50 1.53 1.12 1.26 0.98 1.11 1.28 1.73 1.69 1.59 0.69 0.39 0.28 0.28 0.29 0.50 1.19 1.72 1.78 1.28 1.74 2.50 2.71 2.44 3.14 2.59 2.80 2.53 1.89 1.81 1.81 2.17 2.25 1.94 2.18 2.11 2.15 2.42 2.33 1.81 1.62 1.31 1.31 1.69 2.13 2.52 2.43 2.53 2.59 3.08 3.21 2.06 2.08 2.85 2.50 2.13 2.24 2.50 3.20 3.13 3.44 2.08 2.08
6.99 6.14 5.74 5.72 4.99 3.86 4.35 4.30 4.40 4.88 5.39 4.93 3.98 4.57 3.44 3.99 4.30 4.68 4.10 3.87 2.74 2.06 1.70 1.41 1.50 1.32 1.40 1.69 1.66 1.46 1.87 1.20 0.48 0.24 0.19 0.21 0.22 0.33 0.60 1.45 1.66 1.30 1.56 1.60 2.02 2.67 2.98 3.43 2.95 2.04 1.52 1.69 1.39 1.81 2.22 3.08 2.65 2.60 2.82 3.04 1.94 2.57 2.59 2.45 2.19 2.54 2.88 2.56 2.14 2.79 2.23 2.75 1.95 1.64 2.42 3.08 2.86 3.86 3.75 3.63 4.72 4.09 2.36 2.50 2.00
5.24 4.82 6.11 6.04 4.43 4.02 3.88 4.27 5.21 6.21 6.37 5.77 4.76 4.92 4.78 4.72 5.10 4.75 3.86 3.26 2.79 2.03 1.93 1.58 1.56 1.83 1.87 1.49 1.31 1.39 1.32 0.97 0.32 0.27 0.24 0.22 0.23 0.48 0.87 1.13 1.09 1.05 1.58 2.44 2.41 3.12 3.08 3.17 3.04 2.24 2.33 2.13 2.35 1.89 2.70 3.23 3.08 3.70 3.02 2.77 2.66 2.62 2.64 2.28 2.41 2.69 2.28 2.64 2.16 3.03 2.53 1.99 1.78 2.47 3.09 2.94 2.86 4.16 4.72 4.72 2.99 2.95 3.40 2.51 2.10
3.91 4.63 5.04 4.97 4.77 3.98 4.24 5.39 4.90 4.95 4.97 5.59 5.62 5.52 5.75 5.84 4.99 4.87 3.65 3.10 2.67 1.90 2.51 2.04 1.50 2.32 1.92 1.59 1.52 1.74 1.45 1.06 0.52 0.60 0.54 0.74 1.34 0.75 0.70 1.15 1.30 1.44 1.78 2.13 2.13 3.18 3.12 2.69 2.80 2.20 1.81 2.16 2.51 2.12 2.78 3.40 3.32 3.03 3.44 2.50 3.04 3.01 4.38 2.96 1.90 1.23 1.61 1.88 3.14 1.67 2.71 3.10 2.62 2.43 3.13 2.76 3.56 5.68 7.72 4.95 1.81 2.54 4.93 3.53 3.01
4.76 4.96 4.99 4.84 6.14 5.37 5.55 5.50 5.93 5.96 5.17 5.15 4.67 5.46 5.82 5.52 5.38 5.36 4.70 4.58 5.36 5.18 3.89 3.11 4.15 3.95 3.07 1.86 1.50 1.74 1.49 1.42 1.34 1.27 1.67 0.99 1.24 0.72 1.20 1.85 2.00 2.15 2.38 2.94 2.90 2.59 2.33 2.82 1.92 1.91 2.58 2.15 1.19 1.82 2.06 2.46 2.86 3.55 3.27 3.01 2.85 3.10 3.11 2.93 2.48 2.28 1.30 0.89 1.12 1.34 1.47 1.52 1.52 1.28 1.65 3.08 6.93 5.87 5.88 2.58 1.36 3.91 4.86 4.09 3.59
4.97 5.03 4.42 4.31 4.69 4.37 4.52 5.07 5.36 5.84 5.73 5.00 5.67 6.19 5.40 5.05 4.51 4.56 5.50 4.79 5.64 6.18 4.68 4.43 6.07 5.08 4.18 3.24 1.73 1.70 1.25 1.40 1.16 1.22 1.93 1.68 1.62 1.88 1.86 2.39 2.61 2.93 2.77 3.68 4.19 2.45 3.19 2.76 2.34 2.40 2.25 1.71 1.60 2.51 3.61 3.04 2.46 2.55 3.53 4.00 3.38 2.78 2.54 2.80 3.04 3.22 2.74 1.44 1.31 1.16 1.37 1.20 1.09 1.23 1.90 3.25 2.34 3.49 4.20 4.43 4.85 4.24 4.54 3.80 4.61
3.38 3.32 3.87 4.17 4.25 4.25 4.47 5.14 4.31 5.23 4.80 5.38 6.66 6.15 6.53 6.81 6.03 4.86 5.30 6.59 6.75 4.82 5.28 6.27 5.88 4.46 3.31 2.75 2.81 2.37 2.18 1.98 2.49 1.35 1.58 1.99 1.42 3.34 4.31 2.90 2.40 2.89 3.60 3.21 3.19 3.02 3.30 2.46 2.11 2.10 1.79 1.91 1.89 1.89 2.34 1.77 2.55 3.63 4.13 3.52 2.42 2.99 2.83 3.09 3.42 3.04 2.17 2.57 2.43 2.27 2.45 1.74 2.14 2.04 2.49 2.71 3.12 3.29 3.24 4.18 5.32 5.34 4.74 5.46 4.38
3.84 3.62 3.12 3.09 3.35 3.48 4.04 4.91 3.94 3.47 4.26 4.68 4.07 4.60 5.05 5.15 5.86 6.05 6.89 6.97 7.02 6.51 5.73 5.63 5.57 4.40 4.40 4.23 3.92 5.23 5.18 4.34 3.91 2.27 1.94 2.31 2.18 3.53 5.45 4.69 3.61 2.71 2.49 3.45 2.69 3.29 3.36 3.20 2.98 2.52 1.98 1.63 1.54 1.58 2.23 3.01 3.29 2.88 2.35 2.45 1.96 2.70 3.71 3.44 3.42 3.92 2.45 1.87 2.42 2.44 2.42 2.54 2.84 2.49 2.87 2.30 3.42 3.04 2.91 4.34 4.91 6.22 6.78 7.91 5.69
2.84 2.59 2.81 2.59 3.21 4.40 5.51 5.85 5.34 4.70 4.57 4.49 3.73 3.31 3.69 4.17 4.66 4.87 5.62 6.47 7.79 8.82 8.40 6.81 6.31 5.30 5.39 4.81 4.46 4.42 5.23 4.20 5.55 4.25 3.75 3.33 3.29 3.36 4.29 3.57 2.87 2.91 3.56 3.16 3.34 3.06 3.09 4.06 4.79 3.23 3.24 3.25 2.76 1.47 1.65 2.54 2.97 3.03 1.44 1.15 1.68 3.50 4.93 5.17 4.15 3.73 4.30 3.96 2.15 2.65 2.27 3.43 2.51 2.56 2.10 2.12 2.18 2.85 3.45 3.72 4.96 5.76 6.60 4.53 4.09
1.58 2.11 2.30 3.51 3.81 3.47 3.59 4.17 5.79 6.22 6.28 4.18 3.41 4.29 3.75 3.39 3.69 4.77 4.78 5.66 6.70 6.32 4.80 4.74 5.24 5.74 6.02 5.76 5.67 5.31 5.35 5.84 3.65 4.16 2.46 2.69 2.31 2.71 2.30 3.11 4.12 4.55 4.87 5.68 4.38 4.11 4.68 4.99 4.65 4.64 4.95 3.90 3.40 2.43 1.85 2.08 2.73 2.18 1.35 1.53 2.09 3.21 5.78 8.89 6.35 4.94 2.99 2.67 2.68 2.06 1.96 2.00 2.54 3.51 3.50 2.62 3.54 3.87 3.50 3.21 4.54 6.62 4.66 3.99 3.91
0.57 1.20 1.72 1.98 2.71 2.78 2.78 3.04 3.94 4.51 3.16 2.85 2.38 2.27 2.53 3.06 3.83 4.35 3.89 4.07 4.90 5.60 6.85 5.84 5.52 5.61 5.56 5.79 6.26 6.20 6.65 6.66 6.33 5.33 4.45 3.76 3.43 2.74 3.02 3.96 4.06 6.25 4.53 3.96 4.33 4.51 5.03 5.21 5.34 5.09 5.43 5.04 3.70 3.15 3.44 3.54 3.64 2.70 2.56 2.25 2.95 3.95 5.86 6.44 8.72 7.69 4.62 2.93 2.33 2.05 2.11 2.26 2.46 2.21 2.24 2.41 2.72 3.38 4.06 4.58 5.04 4.98 4.03 3.34 3.43
0.47 1.13 1.47 1.75 1.81 1.79 1.72 2.68 4.27 2.95 2.17 2.02 2.35 2.14 2.02 2.23 2.63 2.54 2.13 2.15 2.65 3.19 3.93 4.50 4.88 5.47 6.24 6.58 8.11 8.20 7.33 6.43 7.18 6.42 5.17 4.69 4.57 4.27 3.59 3.01 3.53 4.30 3.96 3.90 3.25 3.33 3.30 3.58 4.45 4.93 3.82 3.59 3.56 3.77 4.13 4.11 4.05 3.08 3.03 3.00 3.51 6.14 6.14 6.66 6.42 8.24 5.04 3.16 2.78 2.54 2.24 2.33 2.01 2.00 2.15 2.51 2.53 3.10 2.94 3.11 3.63 3.09 2.55 2.50 2.33
0.50 0.95 0.77 1.27 1.74 1.38 1.45 1.20 1.18 1.77 1.37 1.32 1.42 1.36 1.49 1.84 1.65 1.96 1.78 1.58 1.59 1.64 1.88 2.39 2.82 3.56 4.21 4.15 3.96 4.31 4.81 5.56 5.10 6.11 6.94 6.01 6.27 6.06 5.33 4.83 5.96 6.44 5.28 4.80 3.97 3.89 3.85 4.53 4.29 3.92 3.69 3.81 4.63 4.37 5.29 5.24 3.98 3.89 3.57 3.97 3.47 3.98 5.59 6.33 5.22 6.14 4.90 2.66 2.55 2.36 2.55 2.83 2.13 2.13 2.31 2.24 2.64 2.38 2.54 2.91 2.48 2.24 1.92 1.56 1.42
0.48 0.97 1.29 1.01 0.99 0.93 0.61 0.57 0.37 0.35 0.63 0.77 0.63 0.87 1.27 1.06 1.09 1.42 1.79 1.41 1.66 2.20 2.28 2.28 2.33 2.22 2.28 2.63 3.17 3.19 3.47 3.22 2.76 3.22 4.38 4.91 4.48 4.29 3.83 4.95 5.39 6.32 7.19 6.86 5.74 5.87 5.14 5.46 4.93 4.13 4.22 4.25 3.85 3.88 4.18 4.10 3.98 3.59 3.79 3.73 3.14 3.17 3.54 3.70 3.38 3.94 2.92 2.24 2.00 1.86 2.64 2.74 2.82 2.76 2.62 2.83 3.14 2.93 2.82 2.66 2.30 2.13 2.31 1.58 1.36
1.04 1.12 1.38 1.50 1.71 1.67 1.60 1.32 0.59 0.29 0.32 0.43 0.73 0.70 1.05 1.59 1.31 1.09 0.77 0.84 1.06 0.88 0.91 0.95 0.85 0.99 1.33 2.20 3.02 3.25 3.06 2.35 2.40 2.61 2.84 2.76 2.80 3.43 3.56 3.48 3.43 3.85 3.92 3.66 4.01 4.39 5.81 5.27 5.27 5.53 4.77 4.33 4.53 3.80 3.48 2.89 2.64 2.44 2.66 3.35 3.36 2.66 2.48 2.03 2.48 3.06 2.27 2.38 2.54 2.81 3.23 3.07 2.89 2.51 2.89 2.89 2.56 2.06 1.71 1.85 1.78 1.89 2.36 2.01 2.15
1.70 1.48 1.54 1.68 1.53 1.21 0.79 0.56 0.68 0.81 0.74 1.46 1.84 1.61 0.95 0.78 0.82 0.94 0.66 0.51 0.49 0.56 0.57 0.72 0.83 0.95 1.56 2.00 2.08 1.17 1.25 1.49 1.75 1.62 1.87 2.08 2.25 2.04 1.72 1.97 1.83 1.84 1.99 2.12 2.07 2.62 4.24 4.61 4.19 3.11 3.47 3.12 3.31 2.65 2.48 2.52 2.40 2.22 2.36 2.74 2.16 2.68 2.37 2.26 2.49 2.54 2.17 3.02 2.40 2.85 2.92 2.58 2.53 2.62 2.74 2.49 1.63 1.36 1.36 1.53 1.60 1.72 1.69 2.39 1.78
0.95 0.89 0.82 0.78 0.74 0.64 0.53 0.53 0.55 0.55 0.65 1.03 1.15 0.65 0.42 0.54 0.36 0.40 0.46 0.31 0.20 0.16 0.14 0.34 0.42 0.49 0.65 0.50 0.59 0.79 0.67 0.98 0.82 0.60 0.50 0.73 0.79 1.00 0.94 1.02 0.94 1.17 1.17 1.79 2.36 3.77 2.85 2.24 2.10 1.95 1.72 1.71 2.05 2.10 2.44 2.57 2.38 2.08 1.72 1.74 1.81 1.91 2.28 2.36 2.56 2.96 2.16 2.17 2.38 2.98 3.07 2.93 2.95 2.73 2.40 2.03 1.44 1.29 1.21 1.49 1.84 1.78 2.30 2.09 2.19
1.28 1.03 0.68 0.66 0.72 0.73 0.65 0.47 0.49 0.51 0.67 0.30 0.41 0.58 0.43 0.28 0.29 0.14 0.14 0.17 0.25 0.53 0.80 0.91 0.83 0.94 0.93 0.96 0.91 0.80 0.61 0.89 0.65 0.26 0.42 0.61 0.46 0.54 0.83 0.86 1.67 1.25 2.39 3.97 2.54 1.61 1.50 1.33 1.22 1.36 1.51 1.54 1.18 1.11 1.53 1.73 1.79 1.74 1.42 1.39 1.64 1.61 1.47 1.82 1.65 2.08 2.06 1.97 2.45 2.67 2.73 2.56 2.19 1.89 2.04 2.04 1.93 1.78 1.75 1.68 1.59 1.72 1.81 2.06 2.13
2.36 1.92 1.81 1.65 1.13 1.14 1.54 1.54 1.36 1.05 1.32 1.61 1.47 1.64 1.51 1.21 0.74 0.60 0.83 1.14 0.78 0.42 0.42 0.74 0.76 1.47 0.75 0.67 0.85 1.39 1.21 1.43 1.63 1.43 1.61 1.27 1.08 0.63 0.31 0.92 2.13 2.24 2.50 2.37 1.59 0.92 1.02 0.88 0.70 0.93 1.06 1.26 1.38 1.37 1.55 2.08 1.48 1.59 1.53 1.33 1.15 1.08 1.05 1.21 1.55 2.54 2.21 1.93 2.63 2.63 2.12 1.67 1.76 2.05 2.55 2.70 2.69 2.89 2.39 1.74 2.01 1.85 1.59 1.71 2.05
1.96 1.71 1.88 1.68 1.95 1.86 1.63 1.60 1.75 2.38 2.08 1.94 1.87 1.72 1.14 0.93 0.84 1.01 1.76 1.27 1.46 1.44 1.33 1.37 1.29 1.49 1.72 1.24 1.02 1.10 0.95 0.63 0.54 0.29 0.28 0.15 0.15 0.17 0.33 1.17 2.01 2.38 2.55 2.39 1.00 0.99 1.46 1.44 1.43 1.20 1.81 1.35 1.44 1.58 1.22 0.92 0.98 1.02 0.80 1.13 1.20 1.29 1.32 1.55 2.30 2.27 1.94 1.75 1.32 1.85 2.03 2.50 2.65 2.92 2.70 2.16 1.95 1.98 1.99 1.89 2.00 1.95 1.99 2.38 2.01
2.74 2.77 2.59 1.96 2.35 2.72 2.97 2.68 2.41 2.06 1.65 2.40 2.02 1.51 1.72 1.95 1.39 0.98 0.73 1.26 1.50 1.24 0.95 1.34 1.36 1.65 1.67 1.11 0.76 1.77 1.10 1.00 1.47 2.42 2.67 2.41 2.27 2.07 1.78 1.84 2.66 4.15 4.12 3.75 3.58 3.20 2.96 2.68 2.56 1.86 1.73 1.38 1.55 1.77 1.18 0.71 0.45 0.63 0.54 0.76 0.76 0.98 1.76 2.71 2.65 2.17 1.89 1.72 1.76 2.02 2.58 2.84 3.48 4.22 3.26 2.26 2.09 1.97 1.78 1.77 1.67 2.15 2.25 1.90 1.98
2.35 2.06 1.82 1.91 2.43 2.31 2.04 2.05 2.44 3.47 3.58 2.79 2.25 2.57 2.22 1.84 2.95 2.97 1.47 0.95 1.33 1.99 1.86 1.32 1.15 0.52 0.67 0.71 1.07 1.31 0.87 0.90 0.74 0.33 0.32 0.37 0.53 0.60 1.06 1.71 2.06 1.80 2.53 2.52 3.06 3.44 2.94 2.39 2.12 1.86 1.63 0.83 0.53 0.46 0.55 0.95 1.07 1.03 0.98 1.62 2.00 1.82 2.28 2.14 2.79 3.49 2.97 2.89 2.80 3.08 3.02 2.91 2.63 2.59 3.38 3.32 2.52 2.30 2.22 2.43 2.40 2.27 2.19 2.37 2.14
1.57 1.65 1.98 1.97 2.26 2.38 2.42 2.78 2.74 2.82 3.29 2.88 2.55 3.85 4.37 3.23 2.41 2.44 2.31 2.30 3.05 2.29 2.04 2.05 2.20 1.65 1.65 1.54 1.41 1.27 1.63 1.78 1.52 0.64 1.22 1.45 1.25 1.68 2.83 3.60 3.58 3.75 2.96 1.79 1.79 1.40 0.91 0.74 0.68 0.68 0.78 1.16 1.30 1.74 1.66 2.14 1.73 1.71 1.34 1.60 1.63 1.26 2.44 2.03 2.28 2.68 1.64 1.73 1.86 1.95 2.10 2.12 1.75 1.93 2.39 2.57 3.48 3.95 3.01 2.02 2.13 2.79 3.26 2.88 2.49
0.99 1.18 1.50 1.94 1.98 2.02 2.42 2.90 2.88 2.88 2.26 2.71 2.81 3.84 4.00 4.10 3.69 3.30 3.65 2.67 2.84 2.32 1.80 1.72 1.45 1.68 1.46 1.36 0.96 0.92 1.62 2.79 2.43 2.28 2.43 2.64 2.49 4.44 4.13 1.84 1.23 1.70 1.19 1.28 1.25 1.31 0.74 0.52 0.63 1.15 1.05 1.53 1.82 1.67 1.66 2.10 1.98 1.89 1.64 1.97 1.92 2.50 3.90 2.25 2.65 2.40 1.98 2.05 1.90 2.23 2.37 2.06 1.92 2.12 2.05 2.45 2.65 3.04 3.05 2.82 2.52 2.52 2.57 2.43 2.65
1.12 1.10 1.14 0.90 1.24 1.31 1.38 2.06 3.47 2.16 2.31 2.13 2.17 2.62 1.91 2.10 2.41 2.87 2.94 3.27 3.02 3.01 1.86 1.73 2.02 3.15 2.80 2.39 2.21 2.18 2.52 1.94 3.04 4.88 4.24 3.01 2.19 2.71 2.38 2.59 1.75 1.36 1.36 1.29 0.98 0.56 0.52 0.61 1.03 1.11 1.03 1.88 2.41 1.68 1.61 1.66 1.89 2.15 2.32 2.98 4.42 6.35 2.78 2.06 2.50 3.04 2.24 2.23 2.19 2.77 2.65 2.95 2.26 2.22 2.69 3.19 2.36 2.46 3.11 3.88 3.25 2.92 2.62 2.46 2.37
0.93 0.95 1.02 0.94 1.17 1.31 1.16 1.64 1.97 2.71 2.59 2.89 2.51 2.51 2.29 2.49 2.12 2.14 2.07 2.46 2.86 3.59 4.32 3.59 3.54 3.48 3.09 3.03 2.14 2.95 2.62 2.71 2.22 1.33 1.08 1.42 1.56 1.66 2.36 2.32 1.88 1.70 1.45 1.20 1.09 1.15 1.51 1.72 1.56 2.13 2.19 2.30 2.16 2.52 1.96 1.85 1.90 2.70 3.12 3.42 5.42 5.15 2.91 2.64 3.08 3.62 2.41 2.31 2.81 2.82 2.17 2.27 2.15 2.46 2.85 2.84 2.36 2.96 3.41 3.12 3.16 2.66 2.71 2.81 2.95
1.34 1.72 1.87 0.92 0.97 1.61 1.55 1.85 1.72 2.46 2.93 2.05 1.44 1.85 1.95 2.64 2.65 2.92 3.71 3.39 2.74 2.55 2.40 3.05 4.00 4.43 3.86 3.82 3.28 2.48 2.05 2.54 2.50 2.95 2.30 1.27 1.17 1.53 1.53 1.31 1.63 1.46 2.41 1.36 1.64 1.77 1.51 1.75 1.91 1.71 1.55 2.58 2.13 2.00 2.26 2.28 1.90 2.02 2.85 3.56 6.43 4.45 3.17 3.22 3.03 3.40 3.40 2.42 2.11 1.82 1.63 1.45 1.96 3.22 3.69 3.54 3.38 2.64 2.29 2.62 2.95 2.94 2.91 2.70 3.24
1.96 1.93 1.25 0.86 0.88 1.17 1.44 1.92 1.49 1.05 1.26 1.27 1.34 1.28 1.57 1.39 1.28 1.48 2.28 2.69 2.77 2.93 2.84 3.33 2.81 3.35 2.87 2.50 2.28 2.69 3.77 3.49 2.88 2.09 2.42 3.24 2.39 1.88 1.69 1.67 1.35 3.01 1.80 1.45 1.56 1.94 1.71 1.48 1.42 1.62 1.51 2.58 3.45 3.20 2.42 2.03 2.07 2.09 3.90 4.83 5.84 3.75 2.89 2.92 2.59 2.12 2.12 2.06 2.57 2.36 2.23 2.32 2.91 3.32 2.75 2.95 3.74 3.63 3.37 3.03 2.66 2.94 3.96 4.82 4.91
2.90 2.34 2.18 1.59 1.53 1.55 1.94 1.56 1.13 1.28 1.14 1.73 1.99 1.59 1.39 1.77 2.06 1.62 1.51 1.36 1.70 1.33 1.73 1.57 2.47 2.48 2.55 2.31 1.91 1.96 4.34 2.77 3.07 2.92 2.42 3.07 3.31 3.11 2.76 1.72 1.37 1.46 2.01 2.43 2.18 1.98 1.66 1.87 1.95 1.59 1.74 2.77 3.47 3.34 2.44 1.52 1.86 2.74 2.99 4.03 5.21 3.98 3.46 2.97 2.61 3.22 3.13 2.47 2.08 2.56 2.90 3.09 2.88 4.04 5.11 3.66 3.30 3.38 3.52 3.90 4.24 4.50 4.33 4.39 4.17
2.11 2.74 2.97 3.07 3.40 3.31 2.31 2.43 2.18 3.04 1.79 1.81 2.03 1.14 1.39 2.62 2.89 3.07 2.89 2.58 2.20 1.69 1.17 1.84 2.03 2.25 2.34 1.94 1.91 1.52 1.47 1.61 2.17 2.41 2.54 2.47 2.83 3.24 3.40 2.73 2.02 2.10 2.03 1.86 1.66 2.07 1.68 1.65 1.85 2.05 2.44 2.18 2.51 4.60 4.87 3.96 2.99 2.80 3.42 5.72 4.79 3.06 3.06 2.88 2.82 2.33 2.91 3.33 3.64 3.53 3.45 3.23 3.23 3.94 3.95 4.96 4.25 3.21 3.60 4.23 3.77 3.49 4.39 4.29 4.37
1.37 2.38 2.97 2.51 2.36 2.86 3.53 3.72 3.64 3.79 2.17 2.03 1.91 2.41 3.09 2.73 1.96 1.99 2.90 2.64 2.64 2.34 2.23 2.48 2.81 1.94 2.14 2.13 1.66 1.33 1.23 1.80 1.91 2.33 2.65 2.33 2.43 2.15 2.54 3.33 3.17 3.18 3.31 3.31 3.02 3.10 3.20 2.93 2.26 2.83 3.04 2.72 3.06 4.47 4.60 4.59 5.99 5.82 4.34 3.83 3.79 3.35 2.85 2.93 3.52 3.39 3.52 3.48 2.93 3.50 4.02 4.56 4.32 3.67 3.27 3.16 3.43 4.38 3.44 3.03 2.88 3.01 2.58 2.86 3.43
1.72 1.84 2.52 2.42 2.19 1.89 2.45 2.46 1.63 2.04 2.09 1.75 1.63 1.71 2.63 3.06 2.57 1.76 1.48 1.72 1.39 1.11 1.17 1.56 2.00 2.04 1.87 1.71 1.39 1.52 1.92 2.55 3.25 3.46 3.12 2.35 2.46 2.12 2.42 2.88 2.79 2.17 2.43 2.72 2.22 1.97 2.00 2.63 2.92 2.64 2.62 2.76 3.42 3.86 5.42 4.53 4.55 4.91 5.25 4.60 4.30 4.64 5.16 4.32 3.66 3.03 3.55 4.50 4.41 4.16 3.76 4.29 3.31 2.64 2.13 1.81 2.08 2.50 2.59 2.24 2.70 2.35 2.37 2.59 2.51
1.32 1.48 2.04 2.33 2.25 1.98 2.30 2.89 3.11 2.99 2.76 2.92 3.18 2.96 3.26 3.05 3.00 3.21 2.92 3.30 2.19 1.41 1.21 1.05 1.71 1.70 1.54 1.42 1.70 1.43 2.39 3.25 3.07 1.94 2.34 2.80 2.10 2.71 3.03 4.03 3.18 3.02 3.19 3.20 2.30 1.60 2.02 2.43 2.38 1.86 1.60 2.19 2.39 3.31 4.07 4.94 3.67 4.33 4.12 4.25 4.30 4.36 3.66 3.17 3.37 4.05 4.35 4.27 5.01 3.99 2.58 1.53 1.48 1.69 1.69 1.68 1.67 1.80 2.04 2.06 2.23 2.55 2.92 3.45 3.40
1.80 1.67 1.50 1.58 1.69 1.35 1.43 2.03 2.59 1.92 2.30 3.02 2.55 1.73 1.35 2.00 1.47 1.97 2.77 3.25 2.37 1.69 1.62 2.03 1.82 2.26 2.46 2.07 2.52 2.24 3.10 3.74 3.38 2.42 1.92 2.87 3.37 2.97 3.02 2.52 2.72 3.15 2.93 2.84 2.01 2.38 2.35 2.60 2.34 2.73 1.89 2.30 2.71 2.71 3.39 3.99 5.01 3.65 3.30 2.93 2.61 2.40 2.18 2.12 1.83 2.00 2.46 2.42 2.95 3.37 2.78 2.03 1.90 1.73 1.74 1.85 1.96 1.90 1.91 2.39 2.08 2.37 2.87 3.52 3.18
1.70 1.51 1.64 1.64 1.39 1.57 1.76 1.64 1.88 1.80 1.82 1.98 2.38 3.30 3.58 2.73 3.05 2.94 2.83 2.71 2.71 2.98 2.93 3.17 3.58 3.85 4.01 4.15 3.43 3.79 4.51 3.79 3.39 3.68 2.94 3.02 3.24 2.97 3.06 2.82 2.46 2.51 2.22 2.16 2.31 1.82 1.57 1.75 2.82 2.91 2.04 1.75 2.11 2.28 2.67 2.26 3.34 3.89 3.27 2.44 3.17 2.15 2.20 2.57 2.61 2.88 2.63 2.17 1.53 1.67 1.63 1.82 1.71 1.61 1.65 1.98 2.08 1.67 1.97 2.20 2.56 2.64 3.21 2.93 2.22
1.21 1.20 1.05 1.05 1.36 1.71 2.13 1.84 2.37 2.10 2.09 2.23 2.14 2.21 2.07 1.83 1.51 1.50 1.75 2.33 2.56 2.74 2.38 3.08 4.19 4.11 5.00 4.68 4.40 4.56 4.00 3.14 3.30 3.80 4.15 3.65 3.62 3.19 3.12 2.62 1.85 1.90 2.43 2.68 2.69 2.67 3.34 3.85 4.61 2.37 1.48 2.76 4.02 3.40 3.81 2.57 2.45 3.06 3.91 2.92 1.77 1.13 1.14 0.99 0.94 1.07 1.10 1.27 1.31 1.14 1.10 1.26 1.30 1.88 1.67 1.77 1.87 1.69 2.00 1.74 1.88 1.92 1.46 2.14 2.61
1.13 1.55 1.34 1.77 2.09 1.85 1.75 1.52 1.62 1.98 2.61 2.79 2.80 2.73 2.82 2.60 2.93 2.68 2.29 2.16 2.28 3.52 3.47 3.75 3.50 3.34 3.34 3.31 3.51 3.88 4.14 3.59 3.86 4.19 5.23 4.95 4.16 3.28 2.65 2.48 2.13 2.43 3.07 3.95 3.75 3.33 2.68 1.90 2.10 2.49 2.68 2.95 2.70 3.11 2.74 2.82 2.38 2.06 1.56 1.28 1.47 1.42 1.35 1.11 0.87 1.06 1.33 0.92 0.97 1.03 0.90 1.07 1.00 1.12 1.28 1.31 0.98 1.01 1.24 1.16 1.09 1.53 1.83 2.17 1.87
0.74 0.74 0.80 0.94 1.11 1.60 1.47 1.34 1.49 1.70 1.78 1.88 1.95 2.13 2.20 1.93 2.98 4.10 3.18 2.91 2.29 2.33 2.60 2.64 2.77 2.61 3.07 3.52 3.69 4.26 3.70 3.61 3.99 3.07 3.96 4.93 4.74 4.24 3.38 2.94 3.19 3.17 3.21 3.30 3.26 3.02 3.12 2.70 2.38 2.69 2.74 2.87 2.73 1.94 1.37 1.57 1.67 1.70 1.12 1.03 0.97 0.82 0.81 1.08 0.82 0.65 0.90 0.97 0.98 1.05 0.99 0.88 1.00 1.07 1.09 0.98 0.89 0.85 0.83 0.86 1.15 1.37 1.58 1.48 1.54